EW2544 Weather Reports


time (UTC)temp
F
wind
direction
speed
knots
gust
knots
rain 1hr
in
rain 24hr
in
rain mn
in
humidity
%
barometer
mb
20260510020016 56 98 9.6 14.8 0.00 0.09 0.03 91 1010.7
20260510015016 56 98 8.7 13.0 0.00 0.09 0.03 91 1010.8
20260510014016 56 110 9.6 13.9 0.00 0.09 0.03 91 1010.8
20260510013016 56 105 8.7 12.2 0.00 0.09 0.03 91 1011.2
20260510012016 56 108 9.6 13.0 0.00 0.09 0.03 91 1011.4
20260510011016 56 107 8.7 12.2 0.00 0.09 0.03 91 1011.5
20260510010036 56 102 10.4 15.6 0.00 0.09 0.03 91 1011.5
20260510005016 56 107 8.7 13.9 0.00 0.09 0.03 91 1011.5
20260510004016 56 103 9.6 13.0 0.00 0.09 0.03 91 1011.4
20260510003016 56 105 8.7 13.9 0.00 0.09 0.03 91 1011.5
20260510002036 56 115 9.6 14.8 0.00 0.09 0.03 91 1011.5
20260510001056 56 111 9.6 13.0 0.00 0.09 0.03 91 1011.3
20260510000016 56 102 10.4 16.5 0.00 0.09 0.03 92 1011.2
20260509235036 56 106 10.4 15.6 0.01 0.09 0.03 92 1011.4
20260509234016 56 111 10.4 15.6 0.02 0.09 0.03 91 1011.4
20260509233016 57 109 13.0 20.0 0.02 0.09 0.03 91 1011.3
20260509232016 57 107 11.3 20.0 0.02 0.09 0.03 91 1011.2
20260509231015 57 100 13.9 25.2 0.02 0.09 0.03 91 1010.7
20260509230015 57 102 20.0 26.9 0.03 0.09 0.03 91 1010.5
20260509225016 57 102 20.0 26.1 0.04 0.09 0.02 90 1010.8
20260509224015 57 101 18.2 26.9 0.04 0.08 0.02 90 1011.1
20260509223015 57 91 14.8 23.5 0.05 0.08 0.02 90 1011.5
20260509222015 58 96 15.6 25.2 0.06 0.08 0.02 90 1011.7
20260509221057 58 100 14.8 21.7 0.06 0.07 0.01 91 1011.9
20260509220015 58 98 15.6 24.3 0.06 0.06 0.06 91 1011.9
20260509215016 58 106 17.4 23.5 0.05 0.05 0.05 91 1011.8
20260509214016 58 107 19.1 27.8 0.04 0.04 0.04 90 1011.5
20260509213036 58 107 18.2 26.9 0.03 0.03 0.03 90 1011.1
20260509212016 58 103 16.5 22.6 0.02 0.02 0.02 90 1011.1
20260509211016 59 104 14.8 20.9 0.01 0.01 0.01 89 1011.2
20260509210016 59 98 13.0 20.9 0.00 0.00 0.00 88 1011.3
20260509205016 60 96 13.9 20.9 0.00 0.00 0.00 86 1011.4
20260509204016 60 94 13.0 21.7 0.00 0.00 0.00 84 1011.4
20260509203016 60 89 13.0 19.1 0.00 0.00 0.00 83 1011.3
20260509202016 60 94 11.3 17.4 0.00 0.00 0.00 82 1011.2
20260509201016 61 91 11.3 20.0 0.00 0.00 0.00 81 1011.1
20260509200016 61 94 13.0 21.7 0.00 0.00 0.00 80 1010.9
20260509195016 61 84 13.0 19.1 0.00 0.00 0.00 80 1010.7
20260509194036 61 93 12.2 19.1 0.00 0.00 0.00 79 1010.6
20260509193016 61 91 13.0 22.6 0.00 0.00 0.00 78 1010.5
20260509192016 61 104 15.6 22.6 0.00 0.00 0.00 77 1010.2
20260509191036 61 91 15.6 22.6 0.00 0.00 0.00 74 1009.9
20260509190016 61 83 13.9 24.3 0.00 0.00 0.00 72 1009.9
20260509185016 62 87 13.0 21.7 0.00 0.00 0.00 70 1009.8
20260509184016 62 93 16.5 27.8 0.00 0.00 0.00 69 1009.7
20260509183016 62 83 15.6 24.3 0.00 0.00 0.00 67 1009.8
20260509182016 62 84 13.0 27.8 0.00 0.00 0.00 65 1009.9
20260509181057 62 89 13.0 21.7 0.00 0.00 0.00 65 1009.9
20260509180016 63 84 13.0 20.0 0.00 0.00 0.00 63 1010.1
20260509175015 63 86 14.8 21.7 0.00 0.00 0.00 63 1010.0
20260509174036 63 97 14.8 23.5 0.00 0.00 0.00 62 1009.9
20260509173015 63 94 15.6 23.5 0.00 0.00 0.00 62 1009.9
20260509172016 63 98 16.5 26.9 0.00 0.00 0.00 62 1010.0
20260509171016 63 100 15.6 24.3 0.00 0.00 0.00 61 1009.9
20260509170016 63 102 16.5 26.9 0.00 0.00 0.00 63 1009.9
20260509165015 63 102 17.4 27.8 0.00 0.00 0.00 62 1009.8
20260509164015 63 101 14.8 21.7 0.00 0.00 0.00 64 1009.8
20260509163035 64 101 15.6 25.2 0.00 0.00 0.00 64 1009.6
20260509162036 64 100 14.8 23.5 0.00 0.00 0.00 65 1009.6
20260509161016 64 93 15.6 23.5 0.00 0.00 0.00 67 1009.6
20260509160015 64 93 15.6 27.8 0.00 0.00 0.00 71 1009.6
20260509155036 64 101 17.4 26.1 0.00 0.00 0.00 71 1009.7
20260509154015 64 94 17.4 30.4 0.00 0.00 0.00 71 1009.8
20260509153016 64 97 18.2 26.9 0.00 0.00 0.00 73 1010.0
20260509152016 64 97 17.4 26.1 0.00 0.00 0.00 74 1010.2
20260509151015 64 98 15.6 26.1 0.00 0.00 0.00 74 1010.3
20260509150025 64 98 18.2 28.7 0.00 0.00 0.00 74 1010.4
20260509145015 64 98 16.5 28.7 0.00 0.00 0.00 75 1010.5
20260509144015 64 94 18.2 26.9 0.00 0.00 0.00 75 1010.6
20260509143015 65 103 16.5 26.1 0.00 0.00 0.00 75 1010.7
20260509142015 65 102 18.2 26.9 0.00 0.00 0.00 74 1010.8
20260509141015 65 106 16.5 27.8 0.00 0.00 0.00 73 1010.9
20260509140015 65 100 20.9 31.3 0.00 0.00 0.00 71 1010.9
20260509135015 65 104 20.9 31.3 0.00 0.00 0.00 70 1011.0
20260509134035 65 106 19.1 26.9 0.00 0.00 0.00 70 1011.0
20260509133035 66 101 19.1 33.0 0.00 0.00 0.00 70 1011.1
20260509132015 66 99 20.9 31.3 0.00 0.00 0.00 70 1011.1
20260509131015 66 98 16.5 28.7 0.00 0.00 0.00 71 1011.2
20260509130015 66 95 21.7 32.2 0.00 0.00 0.00 70 1011.4
20260509125017 67 101 19.1 31.3 0.00 0.00 0.00 70 1011.3
20260509124015 67 95 20.9 31.3 0.00 0.00 0.00 69 1011.2
20260509123017 67 99 21.7 33.0 0.00 0.00 0.00 69 1011.2
20260509122017 68 108 21.7 28.7 0.00 0.00 0.00 68 1011.2
20260509121017 67 102 20.9 32.2 0.00 0.00 0.00 68 1011.2
20260509120017 67 96 23.5 32.2 0.00 0.00 0.00 68 1011.2
20260509115037 67 95 21.7 32.2 0.00 0.00 0.00 68 1011.3
20260509114017 67 101 18.2 27.8 0.00 0.00 0.00 70 1011.4
20260509113018 67 97 20.9 29.5 0.00 0.00 0.00 71 1011.6
20260509112022 67 95 20.0 33.0 0.00 0.00 0.00 72 1011.8
20260509111017 67 95 20.9 32.2 0.00 0.00 0.00 72 1011.9
20260509110017 66 95 19.1 28.7 0.00 0.00 0.00 72 1012.0
20260509105016 66 103 20.9 30.4 0.00 0.00 0.00 74 1012.1
20260509104017 66 100 20.0 29.5 0.00 0.00 0.00 75 1012.2
20260509103017 65 98 20.0 27.8 0.00 0.00 0.00 75 1012.2
20260509102037 65 94 16.5 24.3 0.00 0.00 0.00 76 1012.2
20260509101017 65 98 17.4 26.9 0.00 0.00 0.00 77 1012.2
20260509100016 65 95 18.2 25.2 0.00 0.00 0.00 77 1012.3
20260509095017 65 100 19.1 27.8 0.00 0.00 0.00 78 1012.3
20260509094021 65 95 14.8 24.3 0.00 0.00 0.00 79 1012.2
20260509093017 65 110 17.4 25.2 0.00 0.00 0.00 78 1012.4
20260509092016 65 101 16.5 24.3 0.00 0.00 0.00 79 1012.1
20260509091017 64 99 18.2 24.3 0.00 0.00 0.00 80 1012.1
20260509090017 64 95 16.5 26.9 0.00 0.00 0.00 81 1012.0
20260509085016 64 89 17.4 25.2 0.00 0.00 0.00 81 1012.1
20260509084037 64 104 14.8 24.3 0.00 0.00 0.00 82 1012.2
20260509083016 63 103 17.4 27.8 0.00 0.00 0.00 83 1012.2
20260509082016 63 101 17.4 27.8 0.00 0.00 0.00 84 1012.2
20260509081016 63 97 16.5 25.2 0.00 0.00 0.00 84 1012.3
20260509080016 63 103 16.5 26.9 0.00 0.00 0.00 84 1012.5
20260509075017 63 104 15.6 25.2 0.00 0.00 0.00 84 1012.6
20260509074036 62 108 14.8 20.0 0.00 0.00 0.00 86 1012.7
20260509073017 62 106 11.3 16.5 0.00 0.00 0.00 86 1013.0
20260509072017 61 100 13.0 21.7 0.00 0.00 0.00 86 1013.1
20260509071016 61 98 13.9 22.6 0.00 0.00 0.00 86 1013.2
20260509070016 61 100 12.2 25.2 0.00 0.00 0.00 86 1013.2
20260509065016 61 111 13.9 20.9 0.00 0.00 0.00 87 1013.4
20260509064017 61 110 13.0 21.7 0.00 0.00 0.00 87 1013.4
20260509063036 60 102 12.2 17.4 0.00 0.00 0.00 88 1013.2
20260509062016 61 107 10.4 17.4 0.00 0.00 0.00 87 1013.3
20260509061016 61 108 11.3 17.4 0.00 0.00 0.00 87 1013.4
20260509060016 61 102 12.2 18.2 0.00 0.00 0.00 87 1013.2
20260509055016 61 105 12.2 22.6 0.00 0.00 0.00 86 1013.0
20260509054016 60 95 13.0 25.2 0.00 0.00 0.00 86 1013.0
20260509053016 60 97 12.2 18.2 0.00 0.00 0.00 87 1013.0
20260509052036 60 100 11.3 17.4 0.00 0.00 0.00 88 1013.1
20260509051016 59 102 10.4 16.5 0.00 0.00 0.00 88 1013.0
20260509050016 59 106 10.4 17.4 0.00 0.00 0.00 88 1013.0
20260509045016 59 109 10.4 16.5 0.00 0.00 0.00 87 1013.0
20260509044116 59 109 11.3 17.4 0.00 0.00 0.00 88 1012.9
20260509043016 59 108 11.3 19.1 0.00 0.00 0.00 88 1012.9
20260509042016 59 103 13.0 19.1 0.00 0.00 0.00 87 1012.8
20260509041056 59 99 13.0 20.9 0.00 0.00 0.00 87 1012.7
20260509040016 59 105 11.3 16.5 0.00 0.00 0.00 88 1012.7
20260509035036 59 109 8.7 14.8 0.00 0.00 0.00 88 1012.9
20260509034036 59 109 7.8 13.9 0.00 0.00 0.00 88 1012.9
20260509033016 59 116 8.7 13.0 0.00 0.00 0.00 88 1013.0
20260509032016 59 115 7.8 13.9 0.00 0.00 0.00 88 1013.1
20260509031016 59 110 9.6 14.8 0.00 0.00 0.00 87 1013.0
20260509030015 59 111 10.4 15.6 0.00 0.00 0.00 87 1012.9
20260509025016 59 117 8.7 13.0 0.00 0.00 0.00 87 1013.1
20260509024015 59 114 10.4 14.8 0.00 0.00 0.00 88 1013.0
20260509023016 59 118 7.8 13.9 0.00 0.00 0.00 88 1013.0
20260509022015 60 110 10.4 14.8 0.00 0.00 0.00 87 1013.0
20260509021036 60 111 9.6 14.8 0.00 0.00 0.00 87 1013.0